Barrow, AK

1:05 AM AKDT on June 21, 2018 (GMT -0800)
Wiley Post-Will Rogers Memorial

Weather History for PABR - November, 2017

Change the Weather History Date:

Wednesday, November 8, 2017

  Actual Average Record
Temperature  
Mean Temperature 22 °F 4 °F  
Max Temperature 27 °F 9 °F 32 °F (1965)
Min Temperature 17 °F -2 °F -32 °F (1975)
Degree Days  
Heating Degree Days 43 61  
Month to date heating degree days 199 476  
Since 1 July heating degree days 3699 4499  
Cooling Degree Days 0 0  
Month to date cooling degree days 0 0  
Year to date cooling degree days 0 0  
Moisture  
Dew Point 16 °F    
Average Humidity 80    
Maximum Humidity 85    
Minimum Humidity 77    
Precipitation  
Precipitation 0.00 in 0.01 in 0.15 in (1968)
Month to date precipitation 0.21 0.07  
Year to date precipitation 7.25 4.25  
Snow  
Snow 0.00 in 0.20 in 2.10 in (1968)
Month to date snowfall 1.9 1.9  
Since 1 July snowfall 9.8 16.5  
Since 1 September snowfall 9.0 15.4  
Snow Depth 1.00 in    
Sea Level Pressure  
Sea Level Pressure 29.46 in    
Wind  
Wind Speed 20 mph (South)    
Max Wind Speed 29 mph    
Max Gust Speed -    
Visibility 10 miles    
Events      
T = Trace of Precipitation, MM = Missing Value Source: NWS Daily Summary

Daily Weather History Graph

Daily Weather History Graph

Search for Another Location

Airport or City:

Astronomy

Nov. 08, 2017 Rise Set
Actual Time 11:01 AM AKST 3:19 PM AKST
Civil Twilight 9:24 AM AKST 4:56 PM AKST
Nautical Twilight 7:59 AM AKST 6:20 PM AKST
Astronomical Twilight 6:43 AM AKST 7:36 PM AKST
Moon No Moon Rise No Moon Set
Length of Visible Light 7h 31m
Length of Day
4h 18m
Waning Gibbous, 72% of the Moon is Illuminated
Nov 8
Waning Gibbous
Nov 10
Last Quarter
Nov 18
New
Nov 26
First Quarter
Dec 3
Full

Hourly Weather History & Observations

Time (AKST) Temp. Windchill Dew Point Humidity Pressure Visibility Wind Dir Wind Speed Gust Speed Precip Events Conditions
12:53 AM 23.0 °F 8.3 °F 17.1 °F 78% 29.65 in 10.0 mi South 19.6 mph - N/A   Scattered Clouds
1:53 AM 21.9 °F 7.3 °F 16.0 °F 78% 29.62 in 10.0 mi South 18.4 mph - N/A   Clear
2:53 AM 19.9 °F 5.2 °F 14.0 °F 78% 29.59 in 10.0 mi South 17.3 mph - N/A   Clear
3:53 AM 19.0 °F 5.0 °F 12.9 °F 77% 29.56 in 10.0 mi South 15.0 mph - N/A   Clear
4:53 AM 19.0 °F 2.7 °F 14.0 °F 81% 29.51 in 10.0 mi SSE 20.7 mph - N/A   Clear
5:53 AM 21.9 °F 6.9 °F 16.0 °F 78% 29.48 in 10.0 mi SSE 19.6 mph - N/A   Scattered Clouds
6:53 AM 24.1 °F 8.7 °F 18.0 °F 77% 29.45 in 10.0 mi South 23.0 mph - N/A   Partly Cloudy
7:53 AM 27.0 °F 11.6 °F 21.9 °F 81% 29.44 in 9.0 mi South 26.5 mph - N/A   Overcast
8:43 AM 27.0 °F 11.0 °F 21.0 °F 78% 29.42 in 9.0 mi South 28.8 mph - N/A   Overcast
8:53 AM 27.0 °F 11.3 °F 21.0 °F 78% 29.42 in 8.0 mi South 27.6 mph - N/A   Overcast
9:37 AM 27.0 °F 12.8 °F 21.0 °F 78% 29.41 in 9.0 mi South 21.9 mph - N/A   Mostly Cloudy
9:53 AM 26.1 °F 11.3 °F 21.0 °F 81% 29.42 in 8.0 mi SSW 23.0 mph - N/A   Mostly Cloudy
10:53 AM 25.0 °F 9.5 °F 19.0 °F 78% 29.43 in 10.0 mi SSW 24.2 mph - N/A   Scattered Clouds
11:53 AM 21.9 °F 7.3 °F 17.1 °F 82% 29.44 in 10.0 mi South 18.4 mph - N/A   Scattered Clouds
12:53 PM 21.0 °F 5.7 °F 16.0 °F 81% 29.44 in 10.0 mi SSW 19.6 mph - N/A   Scattered Clouds
1:53 PM 19.9 °F 5.2 °F 15.1 °F 81% 29.45 in 10.0 mi SSW 17.3 mph - N/A   Scattered Clouds
2:53 PM 19.0 °F 4.5 °F 14.0 °F 81% 29.46 in 10.0 mi SSW 16.1 mph - N/A   Clear
3:53 PM 18.0 °F 2.2 °F 12.9 °F 81% 29.46 in 10.0 mi SSW 18.4 mph - N/A   Clear
4:53 PM 19.0 °F 3.2 °F 12.9 °F 77% 29.45 in 10.0 mi SSW 19.6 mph - N/A   Clear
5:53 PM 19.9 °F 3.5 °F 15.1 °F 81% 29.44 in 10.0 mi South 21.9 mph - N/A   Partly Cloudy
6:53 PM 19.9 °F 3.9 °F 14.0 °F 78% 29.43 in 10.0 mi South 20.7 mph - N/A   Clear
7:53 PM 19.9 °F 3.5 °F 15.1 °F 81% 29.42 in 10.0 mi South 21.9 mph - N/A   Partly Cloudy
8:53 PM 19.9 °F 4.3 °F 15.1 °F 81% 29.41 in 10.0 mi South 19.6 mph - N/A   Clear
9:53 PM 19.9 °F 4.3 °F 16.0 °F 85% 29.40 in 10.0 mi South 19.6 mph - N/A   Clear
10:53 PM 19.9 °F 4.3 °F 16.0 °F 85% 29.39 in 10.0 mi South 19.6 mph - N/A   Scattered Clouds
11:53 PM 19.0 °F 5.0 °F 15.1 °F 85% 29.38 in 10.0 mi South 15.0 mph - N/A   Scattered Clouds